EW6762 Weather Reports


Display with metric or nautical units.
time (UTC)temp
F
wind
direction
speed
MPH
gust
MPH
rain 1hr
in
rain 24hr
in
rain mn
in
humidity
%
barometer
mb
20260508120333 56 321 2.0 4.0 0.00 1.97 0.00 96 1017.9
20260508115308 56 325 1.0 5.0 0.00 2.20 0.00 96 1017.8
20260508114310 56 347 2.0 4.0 0.00 2.20 0.00 96 1017.9
20260508113350 56 321 1.0 4.0 0.00 2.20 0.00 96 1017.7
20260508112323 56 284 2.0 4.0 0.00 2.20 0.00 96 1017.6
20260508111314 56 311 1.0 4.0 0.00 2.20 0.00 96 1017.3
20260508110312 56 309 1.0 4.0 0.00 2.20 0.00 96 1017.1
20260508105326 56 333 2.0 4.0 0.00 2.36 0.00 96 1017.0
20260508104325 56 291 2.0 4.0 0.00 2.36 0.00 96 1016.9
20260508103318 56 339 1.0 5.0 0.00 2.36 0.00 96 1016.6
20260508102315 56 312 2.0 4.0 0.00 2.36 0.00 96 1016.6
20260508101314 55 343 1.0 3.0 0.00 2.36 0.00 96 1016.5
20260508100310 55 350 1.0 5.0 0.00 2.36 0.00 96 1016.3
20260508095325 55 332 1.0 4.0 0.00 2.72 0.00 96 1016.1
20260508094320 55 5 3.0 5.0 0.00 2.72 0.00 95 1015.9
20260508093311 55 285 2.0 5.0 0.00 2.72 0.00 95 1015.9
20260508092333 56 304 2.0 3.0 0.00 2.72 0.00 95 1016.1
20260508091310 55 316 0.0 4.0 0.00 2.72 0.00 96 1015.8
20260508090332 55 347 2.0 4.0 0.00 2.72 0.00 95 1015.9
20260508085309 55 342 1.0 2.0 0.00 3.54 0.00 95 1015.9
20260508084320 55 281 0.0 3.0 0.00 3.54 0.00 95 1015.6
20260508083322 55 298 1.0 2.0 0.00 3.54 0.00 95 1015.5
20260508082312 56 321 0.0 2.0 0.00 3.54 0.00 95 1015.3
20260508081309 56 321 1.0 2.0 0.00 3.54 0.00 95 1015.4
20260508080325 56 311 1.0 2.0 0.00 3.54 0.00 95 1015.1
20260508075327 56 296 1.0 2.0 0.00 3.74 0.00 95 1015.1
20260508074318 56 284 1.0 2.0 0.00 3.74 0.00 95 1015.0
20260508073312 56 277 2.0 3.0 0.00 3.74 0.00 95 1014.9
20260508072311 56 302 1.0 2.0 0.00 3.74 0.00 95 1014.8
20260508071332 56 252 1.0 2.0 0.00 3.74 0.00 95 1014.8
20260508070348 56 265 1.0 3.0 0.00 3.74 0.00 95 1014.8
20260508065329 56 300 0.0 2.0 0.00 3.74 0.00 95 1014.6
20260508064326 56 300 1.0 2.0 0.00 3.74 0.00 95 1014.8
20260508063320 56 300 1.0 1.0 0.00 3.74 0.00 94 1014.7
20260508062321 56 300 0.0 1.0 0.00 3.74 0.00 94 1014.6
20260508061317 57 300 0.0 2.0 0.00 3.74 0.00 95 1014.6
20260508060313 57 300 0.0 1.0 0.00 3.74 0.00 94 1014.7
20260508055317 57 300 0.0 1.0 0.00 3.78 0.00 94 1014.7
20260508054314 57 300 1.0 2.0 0.00 3.78 0.00 95 1014.8
20260508053317 57 314 1.0 2.0 0.00 3.78 0.00 95 1014.8
20260508052333 57 321 1.0 1.0 0.00 3.78 0.00 94 1014.8
20260508051313 57 310 0.0 1.0 0.00 3.78 0.00 94 1014.7
20260508050326 57 310 1.0 2.0 0.00 3.78 0.00 94 1014.7
20260508045329 57 310 0.0 2.0 0.00 3.94 0.00 94 1014.4
20260508044323 57 308 1.0 2.0 0.00 3.94 0.00 94 1014.5
20260508043317 57 310 0.0 2.0 0.00 3.94 0.00 94 1014.4
20260508042338 57 310 1.0 3.0 0.00 3.94 0.00 94 1014.3
20260508041309 57 329 2.0 4.0 0.00 3.94 0.00 94 1014.1
20260508040327 58 345 1.0 4.0 0.00 3.94 0.00 94 1014.4
20260508035321 58 355 1.0 4.0 0.00 4.06 1.00 94 1014.3
20260508034325 58 306 1.0 4.0 0.00 4.06 1.00 94 1014.2
20260508033320 58 342 2.0 4.0 0.00 4.06 1.00 94 1014.1
20260508032313 57 278 2.0 4.0 0.00 4.06 1.00 94 1014.1
20260508031314 57 276 1.0 2.0 0.04 4.06 1.00 94 1013.9
20260508030313 57 321 1.0 2.0 0.04 4.06 1.00 94 1013.8
20260508025314 57 307 1.0 2.0 0.08 4.06 1.00 94 1013.7
20260508024310 57 300 1.0 6.0 0.08 4.06 1.00 94 1013.4
20260508023332 57 351 3.0 5.0 0.12 4.06 1.00 94 1013.1
20260508022326 57 350 3.0 8.0 0.16 4.06 1.00 94 1013.2
20260508021323 57 5 1.0 9.0 0.12 4.02 0.99 94 1013.0
20260508020325 57 5 2.0 6.0 0.12 4.02 0.99 94 1012.8
20260508015319 57 355 3.0 6.0 0.08 3.98 0.98 93 1013.0
20260508014314 57 317 2.0 3.0 0.28 3.98 0.98 93 1012.9
20260508013334 57 65 3.0 6.0 0.83 3.90 0.96 93 1012.3
20260508012336 57 5 2.0 5.0 0.98 3.90 0.96 93 1012.4
20260508011310 57 12 2.0 5.0 1.02 3.90 0.96 93 1012.4
20260508010334 57 34 2.0 5.0 1.02 3.90 0.96 92 1012.6
20260508005309 58 336 1.0 6.0 1.02 3.90 0.96 92 1012.3
20260508004329 58 340 2.0 8.0 0.83 3.70 0.91 91 1012.2
20260508003318 58 360 3.0 11.0 0.20 3.07 0.76 90 1011.3
20260508002335 58 324 3.0 11.0 0.04 2.91 0.71 89 1011.7
20260508001310 59 33 5.0 15.0 0.00 2.87 0.70 87 1011.1
20260508000324 59 324 3.0 11.0 0.00 2.87 0.70 86 1011.1
20260507235321 59 319 6.0 14.0 0.00 2.87 0.70 86 1010.8
20260507234336 59 329 6.0 11.0 0.00 2.87 0.70 86 1010.7
20260507233312 59 344 5.0 10.0 0.00 2.87 0.70 87 1010.8
20260507232326 60 360 8.0 13.0 0.00 2.87 0.70 87 1010.7
20260507231324 60 340 5.0 15.0 0.00 2.87 0.70 87 1010.5
20260507230317 61 335 5.0 16.0 0.00 2.87 0.70 87 1010.4
20260507225315 61 347 7.0 15.0 0.00 2.87 0.70 86 1010.0
20260507224351 62 326 6.0 12.0 0.00 2.87 0.70 87 1009.9
20260507223322 63 36 5.0 14.0 0.00 2.87 0.70 87 1009.8
20260507222318 63 96 5.0 18.0 0.00 2.87 0.70 87 1009.6
20260507221309 64 331 7.0 14.0 0.00 2.87 0.70 87 1009.9
20260507220325 65 340 7.0 21.0 0.00 2.87 0.70 86 1009.8
20260507215313 66 292 5.0 14.0 0.00 2.87 0.70 86 1009.9
20260507214330 67 305 7.0 17.0 0.00 2.87 0.70 84 1009.7
20260507212317 70 360 9.0 19.0 0.00 2.87 0.70 81 1008.9
20260507211322 70 343 6.0 12.0 0.00 2.87 0.70 83 1008.6
20260507210315 69 316 5.0 15.0 0.00 2.87 0.70 83 1008.6
20260507205332 71 310 8.0 12.0 0.00 2.87 0.70 83 1008.6
20260507204325 73 23 6.0 18.0 0.00 2.87 0.70 81 1008.5
20260507203322 75 322 6.0 14.0 0.00 2.87 0.70 80 1008.2
20260507202323 78 288 4.0 9.0 0.00 2.87 0.70 83 1007.8
20260507201332 77 190 3.0 8.0 0.00 2.87 0.70 85 1007.7
20260507200312 76 164 3.0 7.0 0.00 2.87 0.70 87 1008.0
20260507195327 76 230 3.0 7.0 0.00 2.87 0.70 86 1008.1
20260507194329 76 237 4.0 7.0 0.00 2.87 0.70 83 1007.9
20260507193318 76 281 3.0 5.0 0.00 2.87 0.70 85 1008.1
20260507192314 76 240 3.0 7.0 0.04 2.87 0.70 86 1008.2
20260507191317 76 293 4.0 9.0 0.04 2.87 0.70 85 1008.6
20260507190336 76 250 5.0 8.0 0.04 2.87 0.70 87 1008.4
20260507185326 76 200 3.0 7.0 0.04 2.87 0.70 89 1008.1
20260507184342 75 209 4.0 8.0 0.04 2.87 0.70 91 1008.7
20260507183312 74 254 3.0 10.0 0.04 2.87 0.70 92 1008.7
20260507182347 74 254 2.0 10.0 0.00 2.83 0.69 94 1009.2
20260507181321 73 249 4.0 8.0 0.00 2.83 0.69 94 1009.2
20260507180310 72 234 4.0 7.0 0.00 2.83 0.69 94 1008.7
20260507175328 72 241 2.0 8.0 0.00 2.83 0.69 94 1008.8
20260507174343 72 182 2.0 8.0 0.04 2.83 0.69 95 1008.6
20260507173322 72 94 3.0 8.0 0.08 2.83 0.69 94 1009.1
20260507172315 72 180 3.0 5.0 0.12 2.83 0.69 95 1008.9
20260507171335 72 150 2.0 4.0 0.16 2.83 0.69 95 1009.1
20260507170335 72 275 3.0 6.0 0.20 2.83 0.69 96 1009.3
20260507165344 72 222 2.0 7.0 0.24 2.83 0.69 96 1009.6
20260507164322 71 134 3.0 5.0 0.24 2.80 0.68 96 1009.7
20260507163318 71 96 3.0 7.0 0.20 2.76 0.67 95 1009.7
20260507162335 70 139 4.0 14.0 0.20 2.72 0.66 95 1010.4
20260507161328 70 202 4.0 10.0 0.20 2.68 0.65 94 1010.4
20260507160321 70 177 4.0 11.0 0.24 2.64 0.64 94 1010.4
20260507155324 71 222 5.0 10.0 0.24 2.60 0.63 95 1010.4
20260507154347 71 140 5.0 10.0 0.28 2.56 0.62 95 1010.3
20260507153323 71 103 3.0 9.0 0.35 2.56 0.62 95 1010.3
20260507152344 71 191 3.0 6.0 0.35 2.52 0.61 95 1010.5
20260507151326 71 166 1.0 5.0 0.35 2.48 0.60 95 1010.5
20260507150321 71 212 2.0 4.0 0.28 2.40 0.58 95 1010.5
20260507145343 71 175 3.0 6.0 0.24 2.36 0.57 94 1010.7
20260507144317 71 215 3.0 5.0 0.16 2.28 0.55 94 1010.8
20260507143318 71 214 2.0 6.0 0.08 2.20 0.53 94 1010.9
20260507142314 71 168 3.0 7.0 0.04 2.17 0.52 94 1010.9
20260507141312 71 227 5.0 10.0 0.00 2.13 0.51 94 1011.2
20260507140314 71 225 5.0 12.0 0.00 2.13 0.51 94 1010.9
20260507135330 71 178 3.0 7.0 0.00 2.13 0.51 95 1010.8
20260507134313 71 235 3.0 9.0 0.00 2.13 0.51 95 1010.9
20260507133336 71 221 4.0 8.0 0.00 2.13 0.51 95 1010.5
20260507132310 71 190 3.0 7.0 0.00 2.13 0.51 96 1010.4
20260507131332 71 265 3.0 7.0 0.00 2.13 0.51 96 1010.4
20260507130327 70 121 3.0 6.0 0.00 2.13 0.51 95 1010.2
20260507125320 70 184 3.0 8.0 0.04 2.13 0.51 95 1010.3
20260507124325 71 148 4.0 7.0 0.08 2.13 0.51 96 1010.4
20260507123317 70 181 3.0 6.0 0.16 2.13 0.51 96 1010.6
20260507122310 70 138 4.0 8.0 0.20 2.13 0.51 96 1010.9
20260507121310 70 139 4.0 9.0 0.24 2.13 0.51 96 1011.1